Location: *
(49.3500°N, 12.6000°E)
Time: 07:41:53
(UTC+00:00)

SL-08 R/B - Pass Details

Date: 18 October 2019
Orbit: 943 x 1009 km, 82.9° (Epoch: 20 November)

Event Time Altitude Azimuth Distance (km) Brightness Sun altitude
Rises 18:40:07 0° 352° (N) 3,651 7.8 -24.4°
Reaches altitude 10° 18:42:41 10° 356° (N) 2,693 7.0 -24.8°
Maximum altitude 18:48:46 63° 77° (ENE) 1,056 4.4 -25.8°
Enters shadow 18:48:55 63° 85° (E) 1,057 4.3 -25.8°
